Weather in Setovnoye

Russia / Kurgan Oblast     55°04′48″N   67°04′13″E
temp.,
°C
wind,
m/s
gust,
m/s
humid.,
%
clouds,
%
prec.,
mm/h
press.,
hPa
HPBL,
m
22 january, sat
sat2223:00−22wsw111005 0.0 10289
02:00−24wsw1110050 0.0 10299
05:00−24w1110080 0.0 10309
08:00−25wsw1110026 0.0 10319
11:00−19sw119619 0.0 103225
14:00−15sw1190100 0.0 103218
17:00−19wsw1195100 0.0 10349
20:00−19ene0094100 0.0 10349
23 january, sun
sun2323:00−18ese1194100 0.0 10359
02:00−19nne009477 0.0 10369
05:00−21ese229684 0.0 10369
08:00−23ene119874 0.0 10379
11:00−17ese229118 0.0 103852
14:00−13ese239022 0.0 103869
17:00−19ene119846 0.0 10409
20:00−21se111005 0.0 10419
24 january, mon
mon2423:00−23sse229710 0.0 10419
02:00−23sse0095100 0.0 10429
05:00−23sse2297100 0.0 104111
08:00−22s2297100 0.0 10429
11:00−17ssw2289100 0.0 104357
14:00−13s2386100 0.0 104290
17:00−15ssw2292100 0.0 104222
20:00−16ssw3489100 0.0 104152
25 january, tue
tue2523:00−15sw3588100 0.0 104091
02:00−15sw3788100 0.0 1038120
05:00−12sw4888100 0.0 1036198
08:00−13sw3889100 0.0 1035183
11:00−13sw488797 0.0 1034201
14:00−12wsw3788100 0.0 1032193
17:00−12wsw369577 0.0 1032111
20:00−14wsw359895 0.1 103174
26 january, wed
wed2623:00−18w2210094 0.1 103135
02:00−21w2210090 0.0 103130
05:00−21w22100100 0.0 103136
08:00−22wsw2210099 0.0 103126
11:00−17w25976 0.0 103194
14:00−13w24935 0.0 1030128
17:00−16wsw2298100 0.0 103117
20:00−16wsw239846 0.0 103143